GW5510 Weather Reports


time (UTC)temp
F
wind
direction
speed
knots
gust
knots
rain 1hr
in
rain 24hr
in
rain mn
in
humidity
%
barometer
mb
20260906215523 82 198 5.2 7.0 0.00 0.00 0.00 35 1022.5
20260906215021 83 190 1.7 2.6 0.00 0.00 0.00 33 1022.3
20260906214520 83 220 1.7 2.6 0.00 0.00 0.00 34 1022.5
20260906214015 83 164 5.2 5.2 0.00 0.00 0.00 32 1022.5
20260906213514 82 190 2.6 4.3 0.00 0.00 0.00 33 1022.4
20260906213009 82 166 2.6 3.5 0.00 0.00 0.00 34 1022.7
20260906212502 84 178 2.6 2.6 0.00 0.00 0.00 33 1022.7
20260906211957 83 209 2.6 3.5 0.00 0.00 0.00 33 1022.9
20260906211452 84 192 2.6 4.3 0.00 0.00 0.00 31 1022.5
20260906210947 83 188 2.6 3.5 0.00 0.00 0.00 32 1022.8
20260906210437 82 220 0.0 0.9 0.00 0.00 0.00 33 1022.8
20260906205936 83 165 4.3 5.2 0.00 0.00 0.00 33 1022.7
20260906205432 84 155 2.6 4.3 0.00 0.00 0.00 34 1023.0
20260906204928 83 224 0.9 0.9 0.00 0.00 0.00 33 1022.5
20260906204427 83 197 4.3 7.0 0.00 0.00 0.00 32 1022.9
20260906203926 84 200 6.1 7.8 0.00 0.00 0.00 30 1023.0
20260906203422 83 230 3.5 5.2 0.00 0.00 0.00 30 1023.2
20260906202919 83 210 2.6 4.3 0.00 0.00 0.00 32 1023.2
20260906202413 83 208 1.7 2.6 0.00 0.00 0.00 31 1023.2
20260906201913 84 146 6.1 7.8 0.00 0.00 0.00 31 1023.3
20260906201408 84 220 1.7 3.5 0.00 0.00 0.00 31 1023.2
20260906200903 83 207 2.6 3.5 0.00 0.00 0.00 32 1023.3
20260906200400 83 195 2.6 3.5 0.00 0.00 0.00 30 1023.3
20260906195859 82 249 2.6 3.5 0.00 0.00 0.00 32 1023.4
20260906195356 83 195 3.5 4.3 0.00 0.00 0.00 30 1023.6
20260906194852 84 164 3.5 7.0 0.00 0.00 0.00 30 1023.5
20260906194347 82 208 2.6 3.5 0.00 0.00 0.00 32 1023.5
20260906193842 83 169 2.6 3.5 0.00 0.00 0.00 32 1023.8
20260906193337 83 232 1.7 2.6 0.00 0.00 0.00 32 1023.6
20260906192833 83 220 2.6 3.5 0.00 0.00 0.00 32 1023.6
20260906192327 82 204 3.5 3.5 0.00 0.00 0.00 33 1023.8
20260906191826 82 195 4.3 4.3 0.00 0.00 0.00 32 1023.8
20260906191321 82 190 3.5 4.3 0.00 0.00 0.00 32 1023.8
20260906190815 82 169 2.6 3.5 0.00 0.00 0.00 31 1024.0
20260906190315 81 189 1.7 2.6 0.00 0.00 0.00 31 1024.3
20260906185809 82 215 2.6 4.3 0.00 0.00 0.00 32 1024.3
20260906185308 81 187 1.7 3.5 0.00 0.00 0.00 32 1024.1
20260906184803 81 206 4.3 5.2 0.00 0.00 0.00 33 1024.3
20260906184258 82 205 2.6 4.3 0.00 0.00 0.00 32 1024.3
20260906183754 82 209 4.3 5.2 0.00 0.00 0.00 32 1024.5
20260906183250 80 223 0.9 0.9 0.00 0.00 0.00 34 1024.6
20260906182749 81 215 4.3 5.2 0.00 0.00 0.00 33 1024.8
20260906182246 81 205 2.6 3.5 0.00 0.00 0.00 33 1024.6
20260906181746 82 210 3.5 4.3 0.00 0.00 0.00 32 1024.8
20260906181242 82 158 4.3 5.2 0.00 0.00 0.00 32 1024.9
20260906180737 81 180 3.5 4.3 0.00 0.00 0.00 31 1025.0
20260906180232 81 231 2.6 2.6 0.00 0.00 0.00 32 1025.1
20260906175730 82 151 2.6 3.5 0.00 0.00 0.00 31 1025.6
20260906175226 81 222 2.6 2.6 0.00 0.00 0.00 31 1025.4
20260906174724 82 210 1.7 2.6 0.00 0.00 0.00 30 1025.5
20260906174224 81 224 1.7 2.6 0.00 0.00 0.00 31 1025.4
20260906173719 80 249 0.9 0.9 0.00 0.00 0.00 33 1025.6
20260906173215 80 178 1.7 2.6 0.00 0.00 0.00 33 1025.8
20260906172714 79 211 0.9 2.6 0.00 0.00 0.00 33 1025.9
20260906172210 79 203 0.9 0.9 0.00 0.00 0.00 32 1026.0
20260906171709 78 233 1.7 2.6 0.00 0.00 0.00 34 1025.6
20260906171205 78 233 2.6 2.6 0.00 0.00 0.00 35 1025.8
20260906170701 78 217 0.9 0.9 0.00 0.00 0.00 34 1025.9
20260906170201 77 228 0.0 0.0 0.00 0.00 0.00 35 1025.9
20260906165657 76 228 0.9 0.9 0.00 0.00 0.00 36 1026.1
20260906165152 76 293 2.6 3.5 0.00 0.00 0.00 36 1026.0
20260906164651 75 245 0.0 0.0 0.00 0.00 0.00 37 1025.9
20260906164147 75 275 0.9 0.9 0.00 0.00 0.00 39 1026.0
20260906163642 75 294 1.7 2.6 0.00 0.00 0.00 39 1026.1
20260906163138 75 226 0.0 0.0 0.00 0.00 0.00 38 1026.1
20260906162635 74 262 1.7 2.6 0.00 0.00 0.00 38 1026.1
20260906162129 75 225 0.0 0.9 0.00 0.00 0.00 37 1026.3
20260906161624 74 242 0.9 0.9 0.00 0.00 0.00 37 1026.3
20260906161123 73 241 0.9 0.9 0.00 0.00 0.00 39 1026.1
20260906160622 73 239 0.9 0.9 0.00 0.00 0.00 38 1026.1
20260906160121 73 185 0.9 0.9 0.00 0.00 0.00 38 1026.1
20260906155619 73 233 0.0 0.0 0.00 0.00 0.00 38 1026.3
20260906155115 72 252 0.9 0.9 0.00 0.00 0.00 41 1026.3
20260906154610 71 229 0.0 0.0 0.00 0.00 0.00 43 1026.3
20260906154108 71 237 0.0 0.0 0.00 0.00 0.00 43 1026.1
20260906153608 70 236 0.0 0.0 0.00 0.00 0.00 44 1025.9
20260906153103 69 233 0.0 0.9 0.00 0.00 0.00 46 1025.8
20260906152557 69 246 0.9 0.9 0.00 0.00 0.00 50 1025.8
20260906152056 69 243 0.9 0.9 0.00 0.00 0.00 48 1025.9
20260906151546 68 242 0.9 0.9 0.00 0.00 0.00 50 1026.1
20260906151042 68 261 0.9 0.9 0.00 0.00 0.00 50 1025.8
20260906150537 67 319 1.7 2.6 0.00 0.00 0.00 50 1025.8
20260906150032 67 276 0.9 2.6 0.00 0.00 0.00 52 1025.9
20260906145530 66 258 0.9 2.6 0.00 0.00 0.00 51 1026.0
20260906145026 66 251 0.9 0.9 0.00 0.00 0.00 50 1026.1
20260906144520 66 259 0.9 0.9 0.00 0.00 0.00 51 1026.1
20260906144015 66 0 1.7 2.6 0.00 0.00 0.00 52 1026.0
20260906143510 66 271 0.9 2.6 0.00 0.00 0.00 51 1025.9
20260906143008 65 297 1.7 2.6 0.00 0.00 0.00 51 1025.9
20260906142506 65 288 1.7 2.6 0.00 0.00 0.00 52 1025.8
20260906142001 65 265 1.7 2.6 0.00 0.00 0.00 50 1025.8
20260906141455 65 272 0.9 0.9 0.00 0.00 0.00 51 1025.8
20260906140951 65 280 1.7 2.6 0.00 0.00 0.00 50 1025.8
20260906140445 64 253 2.6 3.5 0.00 0.00 0.00 51 1025.5
20260906135943 64 274 0.9 0.9 0.00 0.00 0.00 51 1025.8
20260906135442 64 257 2.6 3.5 0.00 0.00 0.00 51 1026.0
20260906134937 64 251 0.9 0.9 0.00 0.00 0.00 52 1025.8
20260906134432 63 254 0.9 0.9 0.00 0.00 0.00 52 1026.0
20260906133927 63 265 0.9 2.6 0.00 0.00 0.00 52 1025.3
20260906133423 62 258 0.9 0.9 0.00 0.00 0.00 53 1025.3
20260906132919 62 333 1.7 2.6 0.00 0.00 0.00 54 1025.5
20260906132414 62 259 3.5 4.3 0.00 0.00 0.00 53 1025.4
20260906131909 62 300 2.6 2.6 0.00 0.00 0.00 53 1025.4
20260906131404 62 285 1.7 2.6 0.00 0.00 0.00 52 1025.1
20260906130900 62 303 1.7 2.6 0.00 0.00 0.00 52 1025.1
20260906130359 60 334 4.3 5.2 0.00 0.00 0.00 53 1025.5
20260906125859 60 304 1.7 2.6 0.00 0.00 0.00 54 1025.3
20260906125356 60 236 0.0 0.0 0.00 0.00 0.00 54 1025.4
20260906124851 60 260 0.9 0.9 0.00 0.00 0.00 54 1025.4
20260906124347 60 277 0.9 2.6 0.00 0.00 0.00 53 1025.3
20260906123846 60 300 0.9 2.6 0.00 0.00 0.00 53 1025.5
20260906123341 60 305 1.7 2.6 0.00 0.00 0.00 53 1025.1
20260906122841 61 273 0.9 0.9 0.00 0.00 0.00 53 1025.3
20260906122335 61 256 0.9 0.9 0.00 0.00 0.00 53 1025.1
20260906121832 61 251 0.9 0.9 0.00 0.00 0.00 52 1025.0
20260906121328 61 273 0.9 2.6 0.00 0.00 0.00 52 1025.4
20260906120825 61 273 0.9 2.6 0.00 0.00 0.00 52 1025.4
20260906120320 62 255 0.9 0.9 0.00 0.00 0.00 51 1025.3
20260906115816 61 294 0.9 0.9 0.00 0.00 0.00 51 1025.3
20260906115311 60 278 0.9 2.6 0.00 0.00 0.00 53 1025.1
20260906114810 60 275 0.9 0.9 0.00 0.00 0.00 55 1024.9
20260906114305 60 268 0.9 2.6 0.00 0.00 0.00 55 1025.3
20260906113800 60 280 0.9 2.6 0.00 0.00 0.00 56 1025.3
20260906113254 60 235 0.0 0.0 0.00 0.00 0.00 55 1025.1
20260906112754 60 287 0.9 0.9 0.00 0.00 0.00 55 1025.0
20260906112251 60 231 0.0 0.0 0.00 0.00 0.00 57 1025.1
20260906111750 60 257 0.9 0.9 0.00 0.00 0.00 55 1024.8
20260906111249 60 252 0.0 0.9 0.00 0.00 0.00 55 1024.9
20260906110745 60 253 0.9 0.9 0.00 0.00 0.00 55 1024.8
20260906110241 60 255 0.0 0.9 0.00 0.00 0.00 54 1024.8
20260906105740 60 223 0.0 0.0 0.00 0.00 0.00 56 1024.9
20260906105236 60 220 0.0 0.0 0.00 0.00 0.00 54 1024.9
20260906104731 60 220 0.0 0.0 0.00 0.00 0.00 55 1024.6
20260906104230 61 220 0.0 0.0 0.00 0.00 0.00 56 1024.8
20260906103728 61 220 0.0 0.0 0.00 0.00 0.00 55 1024.9
20260906103222 61 220 0.0 0.0 0.00 0.00 0.00 54 1024.8
20260906102718 61 220 0.0 0.0 0.00 0.00 0.00 55 1024.9
20260906102217 61 220 0.0 0.0 0.00 0.00 0.00 54 1025.0
20260906101712 61 220 0.0 0.0 0.00 0.00 0.00 55 1025.1
20260906101207 62 220 0.0 0.0 0.00 0.00 0.00 54 1024.9
20260906100703 62 220 0.0 0.0 0.00 0.00 0.00 54 1025.0
20260906100203 62 220 0.0 0.0 0.00 0.00 0.00 54 1024.9
20260906095657 62 220 0.0 0.0 0.00 0.00 0.00 53 1025.0
20260906095153 62 220 0.0 0.0 0.00 0.00 0.00 54 1025.1
20260906094651 61 262 0.0 0.0 0.00 0.00 0.00 55 1025.1
20260906094147 61 222 0.0 0.9 0.00 0.00 0.00 59 1025.3
20260906093643 61 221 0.0 0.0 0.00 0.00 0.00 59 1025.0
20260906093138 61 222 0.0 0.0 0.00 0.00 0.00 60 1025.1
20260906092633 61 222 0.0 0.0 0.00 0.00 0.00 60 1025.3
20260906092132 61 223 0.0 0.0 0.00 0.00 0.00 59 1024.9
20260906090831 62 221 0.0 0.0 0.00 0.00 0.00 58 1024.9
20260906090330 62 221 0.0 0.0 0.00 0.00 0.00 58 1024.9
20260906085830 62 221 0.0 0.0 0.00 0.00 0.00 59 1024.8
20260906085330 62 221 0.0 0.0 0.00 0.00 0.00 60 1025.0
20260906084825 62 221 0.0 0.0 0.00 0.00 0.00 60 1024.8
20260906084324 62 221 0.0 0.0 0.00 0.00 0.00 60 1025.0
20260906083819 62 221 0.0 0.0 0.00 0.00 0.00 61 1025.0
20260906083314 62 220 0.0 0.0 0.00 0.00 0.00 61 1025.1
20260906082809 62 223 0.0 0.0 0.00 0.00 0.00 62 1025.3
20260906082306 62 223 0.0 0.0 0.00 0.00 0.00 61 1025.1
20260906081800 62 223 0.0 0.0 0.00 0.00 0.00 61 1025.0
20260906081255 62 223 0.0 0.0 0.00 0.00 0.00 61 1024.9
20260906080752 62 223 0.0 0.0 0.00 0.00 0.00 61 1025.1
20260906080248 62 223 0.0 0.0 0.00 0.00 0.00 61 1025.1
20260906075747 62 223 0.0 0.0 0.00 0.00 0.00 61 1025.1
20260906075247 63 223 0.0 0.0 0.00 0.00 0.00 61 1025.1
20260906074742 62 223 0.0 0.0 0.00 0.00 0.00 61 1025.3
20260906074242 63 226 0.0 0.0 0.00 0.00 0.00 61 1025.3
20260906073741 62 228 0.0 0.0 0.00 0.00 0.00 60 1025.3
20260906073236 62 229 0.0 0.0 0.00 0.00 0.00 62 1025.1
20260906072732 62 214 0.0 0.0 0.00 0.00 0.00 64 1025.3
20260906071515 62 215 0.9 0.9 0.00 0.00 0.00 65 1025.4
20260906071010 62 215 0.9 0.9 0.00 0.00 0.00 65 1025.4
20260906070507 62 222 0.0 0.0 0.00 0.00 0.00 64 1025.1
20260906070002 62 227 0.0 0.0 0.00 0.00 0.00 64 1025.3
20260906065501 63 223 0.0 0.0 0.00 0.00 0.00 63 1025.3
20260906064957 63 222 0.0 0.0 0.00 0.00 0.00 63 1025.8
20260906064453 63 210 0.9 0.9 0.00 0.00 0.00 63 1025.8
20260906063947 63 218 0.9 0.9 0.00 0.00 0.00 63 1025.6
20260906063443 64 223 0.0 0.0 0.00 0.00 0.00 62 1025.4
20260906062937 64 221 0.0 0.0 0.00 0.00 0.00 62 1025.4
20260906062432 64 230 0.0 0.0 0.00 0.00 0.00 63 1025.4
20260906061927 64 230 0.0 0.0 0.00 0.00 0.00 63 1025.4
20260906061423 64 228 0.0 0.0 0.00 0.00 0.00 63 1025.3
20260906060917 64 246 0.0 0.0 0.00 0.00 0.00 64 1025.3
20260906060415 64 241 0.0 0.0 0.00 0.00 0.00 63 1025.3
20260906055911 63 250 0.0 0.9 0.00 0.00 0.00 65 1025.1
20260906055407 63 223 0.0 0.0 0.00 0.00 0.00 65 1025.3
20260906054902 64 221 0.0 0.9 0.00 0.00 0.00 65 1025.1
20260906054356 64 227 0.0 0.0 0.00 0.00 0.00 65 1025.3
20260906053853 64 248 0.0 0.9 0.00 0.00 0.00 64 1025.3
20260906053348 64 229 0.0 0.0 0.00 0.00 0.00 63 1025.4
20260906052844 65 226 0.0 0.0 0.00 0.00 0.00 62 1025.3
20260906052340 65 222 0.0 0.0 0.00 0.00 0.00 62 1025.3
20260906051837 65 222 0.0 0.0 0.00 0.00 0.00 62 1025.0
20260906051336 65 222 0.0 0.0 0.00 0.00 0.00 62 1025.3
20260906050832 65 221 0.0 0.0 0.00 0.00 0.00 62 1025.0
20260906050327 65 221 0.0 0.0 0.00 0.00 0.00 63 1025.1
20260906045825 65 222 0.0 0.0 0.00 0.00 0.00 63 1025.1
20260906045320 65 221 0.0 0.0 0.00 0.00 0.00 63 1025.0
20260906044816 66 222 0.0 0.0 0.00 0.00 0.00 62 1025.1
20260906044311 66 220 0.0 0.0 0.00 0.00 0.00 61 1025.1
20260906043807 66 220 0.0 0.0 0.00 0.00 0.00 61 1025.5
20260906043303 66 220 0.0 0.0 0.00 0.00 0.00 60 1025.1
20260906042803 66 215 0.9 0.9 0.00 0.00 0.00 60 1025.4
20260906042302 65 218 0.0 0.0 0.00 0.00 0.00 59 1025.5
20260906041757 66 218 0.0 0.0 0.00 0.00 0.00 58 1025.3
20260906041252 66 217 0.0 0.0 0.00 0.00 0.00 57 1025.1
20260906040748 66 217 0.0 0.0 0.00 0.00 0.00 56 1025.4
20260906040243 66 217 0.9 0.9 0.00 0.00 0.00 56 1025.1
20260906035738 65 218 0.9 0.9 0.00 0.00 0.00 56 1025.4
20260906035234 66 215 0.0 0.9 0.00 0.00 0.00 54 1025.1
20260906034734 66 214 0.9 0.9 0.00 0.00 0.00 53 1025.5
20260906034229 66 214 0.9 0.9 0.00 0.00 0.00 53 1025.5
20260906033724 66 209 0.0 0.0 0.00 0.00 0.00 53 1025.6
20260906033224 66 209 0.0 0.0 0.00 0.00 0.00 52 1025.5
20260906032721 67 209 0.9 0.9 0.00 0.00 0.00 52 1025.4
20260906032221 67 231 0.9 0.9 0.00 0.00 0.00 52 1025.5
20260906031716 68 231 0.9 0.9 0.00 0.00 0.00 52 1025.6
20260906031211 68 222 0.9 0.9 0.00 0.00 0.00 52 1025.1
20260906030711 69 220 0.9 0.9 0.00 0.00 0.00 51 1025.3
20260906030206 69 204 0.9 0.9 0.00 0.00 0.00 52 1025.5
20260906025705 69 211 1.7 2.6 0.00 0.00 0.00 50 1025.3
20260906025201 69 216 0.9 0.9 0.00 0.00 0.00 50 1025.1
20260906024659 70 214 0.9 0.9 0.00 0.00 0.00 47 1025.1
20260906024159 70 211 0.9 0.9 0.00 0.00 0.00 44 1024.8
20260906023655 68 222 0.0 0.9 0.00 0.00 0.00 42 1024.8
20260906023155 68 199 1.7 2.6 0.00 0.00 0.00 42 1024.6
20260906022650 68 288 0.9 0.9 0.00 0.00 0.00 43 1024.1
20260906022145 68 224 0.0 0.0 0.00 0.00 0.00 43 1024.4
20260906021641 68 224 0.0 0.9 0.00 0.00 0.00 43 1024.3
20260906021140 68 224 0.0 0.0 0.00 0.00 0.00 42 1023.9
20260906020634 68 224 0.0 0.0 0.00 0.00 0.00 41 1023.8
20260906020129 68 224 0.0 0.0 0.00 0.00 0.00 42 1024.1
20260906015624 68 224 0.0 0.0 0.00 0.00 0.00 40 1024.0
20260906015122 69 227 0.0 0.0 0.00 0.00 0.00 41 1024.0
20260906014617 69 229 0.0 0.0 0.00 0.00 0.00 42 1024.0
20260906014114 69 230 0.0 0.0 0.00 0.00 0.00 42 1023.9
20260906013609 70 230 0.0 0.0 0.00 0.00 0.00 43 1023.9
20260906013104 70 227 0.0 0.0 0.00 0.00 0.00 40 1023.5
20260906012559 71 227 0.0 0.0 0.00 0.00 0.00 39 1023.6
20260906012058 71 228 0.0 0.0 0.00 0.00 0.00 41 1023.6
20260906011554 72 228 0.0 0.0 0.00 0.00 0.00 39 1023.8
20260906011049 73 228 0.0 0.0 0.00 0.00 0.00 36 1023.9
20260906010544 73 228 0.0 0.0 0.00 0.00 0.00 39 1023.8
20260906010040 74 228 0.0 0.0 0.00 0.00 0.00 38 1023.8
20260906005539 74 234 0.0 0.0 0.00 0.00 0.00 37 1023.9
20260906005038 74 237 0.9 0.9 0.00 0.00 0.00 36 1024.0
20260906004538 75 230 0.0 0.0 0.00 0.00 0.00 39 1024.1
20260906004033 76 220 0.0 0.0 0.00 0.00 0.00 40 1024.1
20260906003529 76 221 0.0 0.0 0.00 0.00 0.00 32 1024.1
20260906003025 75 224 0.0 0.0 0.00 0.00 0.00 33 1024.3
20260906002524 75 218 0.0 0.0 0.00 0.00 0.00 32 1024.5
20260906002019 75 224 0.0 0.9 0.00 0.00 0.00 31 1024.4
20260906001515 75 218 0.9 0.9 0.00 0.00 0.00 31 1024.4
20260906001009 75 214 0.9 0.9 0.00 0.00 0.00 31 1024.3
20260906000506 75 224 0.0 0.0 0.00 0.00 0.00 31 1024.4
20260906000000 75 223 0.0 0.9 0.00 0.00 0.00 31 1024.0
20260905235459 75 217 0.9 0.9 0.00 0.00 0.00 32 1024.0
20260905234954 75 219 0.0 0.0 0.00 0.00 0.00 33 1024.0
20260905234451 75 209 2.6 4.3 0.00 0.00 0.00 33 1024.1
20260905233950 75 220 0.9 0.9 0.00 0.00 0.00 33 1023.9
20260905233446 75 220 0.0 0.0 0.00 0.00 0.00 34 1024.1
20260905232944 75 218 0.9 0.9 0.00 0.00 0.00 34 1023.8
20260905232441 75 214 0.9 0.9 0.00 0.00 0.00 35 1024.0
20260905231936 76 222 0.9 0.9 0.00 0.00 0.00 34 1023.9
20260905231432 76 220 0.0 0.9 0.00 0.00 0.00 33 1023.9
20260905230928 76 222 0.9 0.9 0.00 0.00 0.00 32 1023.9
20260905230426 77 225 0.0 0.0 0.00 0.00 0.00 35 1023.8
20260905225925 77 219 2.6 2.6 0.00 0.00 0.00 30 1024.1
20260905225420 77 211 2.6 2.6 0.00 0.00 0.00 31 1023.5
20260905224915 77 216 0.9 0.9 0.00 0.00 0.00 29 1023.9
20260905224411 77 216 0.0 0.9 0.00 0.00 0.00 30 1024.3
20260905223905 77 186 2.6 3.5 0.00 0.00 0.00 29 1024.1
20260905223403 77 222 0.0 0.0 0.00 0.00 0.00 30 1024.4
20260905222903 77 212 0.9 0.9 0.00 0.00 0.00 30 1024.3
20260905222402 77 208 0.9 2.6 0.00 0.00 0.00 31 1024.4
20260905221858 78 209 1.7 2.6 0.00 0.00 0.00 30 1024.4
20260905221355 78 205 1.7 2.6 0.00 0.00 0.00 31 1024.1
20260905220850 78 184 2.6 4.3 0.00 0.00 0.00 30 1024.3
20260905220346 80 186 3.5 4.3 0.00 0.00 0.00 27 1024.4
20260905215845 82 195 4.3 5.2 0.00 0.00 0.00 25 1024.0